ATLAS 5 CENTAUR DEB, 43962

Orbit data source: Space-Track

ATLAS 5 CENTAUR DEB, 43962 is space debris in HEO originally from a launch on Wed, 17 Sep 2014 UTC launched from the Air Force Eastern Test Range (AFETR). Debris objects in space refer to the collection of defunct objects orbiting the Earth. Examples of debris include non-operational satellites, rocket bodies, and fragments generated from explosions, collisions, or faulty payload assembly.

Loading next visibility...
Identifier
43962, 2014-055R
Orbit
HEO
Country
Flag of USUS
Related business
Flag of USUnited Launch Alliance/Lockheed Martin (US)
Manufacturer
Unknown
Mission
Spacecraft
Bus & Motor
Unknown
Mass
Unknown
Launch date (UTC)
2014-09-17 (11 years ago)
Launch vehicle
Unknown
Launch site
Air Force Eastern Test Range (AFETR)
Object type
Payload
Rocket body
Debris
Shape & HBR
Unknown shape, 1.1 m
Radar Cross Section
Small (<0.1 m²)

Expand to show TLE details & history
Last TLE update: 7 months ago

TLE from 7 months ago
0 ATLAS 5 CENTAUR DEB
1 43962U 14055R   25094.24015095 -.00000100  00000-0  00000+0 0  9996
2 43962  20.2549 157.6325 5051246 143.0401  87.0411  1.90745688 45898
Epoch: 2025-04-04T05:45Z
TLE epoch observation values (Epoch: 2025-04-04T05:45:49.042Z)
Latitude
-19.83732°
Longitude
160.96028°
Altitude
26,609.443 km
Speed
3.107 km/s
True Right ascension
05h 20m 51s
True Declination
-19° 48' 49"
Sunlit
Object was in daylight at epoch
Visualization orbit readout
Latitude
Unknown
Longitude
Unknown
Altitude
Unknown
Speed
Unknown
Apparent Right ascension
Unknown
Apparent Declination
Unknown
Sunlit
N/A
Visualization observer readout
Local Sidereal Time
00:06:45
Azimuth
Unknown
Elevation
Unknown
Doppler factor
Unknown
Orbital elements
Apogee altitude
34,961.859 km
Perigee altitude
7,214.191 km
Semi-major axis
27,466.162 km
Eccentricity
0.50512
Inclination
20.2549°
RAAN
157.6325°
Arg. of periapsis
143.0401°
True anomaly
138.84253°
Mean anomaly
87.0411°
Eccentric anomaly
113.5684°
Mean motion
0.47681 °/min
Orbital period
755.02 mins
BSTAR
0
Loading maneuver chart data...
Computing Atmospheric mass density...

Documentation

Showing up to 5 results
|